Time,TemperatureF,DewpointF,PressureIn,WindDirection,WindDirectionDegrees,WindSpeedMPH,WindSpeedGustMPH,Humidity,HourlyPrecipIn,Conditions,Clouds,dailyrainin,SoftwareType,DateUTC
2013-01-16 00:01:00,32.6,24.6,30.22,NE,45,0.0,0.0,72,0.00,OVC,,0.00,WeatherDisplay:10.37,2013-01-16 05:01:00,
2013-01-16 00:03:00,32.8,24.5,30.22,ENE,69,4.6,4.6,71,0.00,OVC,,0.00,WeatherDisplay:10.37,2013-01-16 05:03:00,
2013-01-16 00:08:00,32.7,24.7,30.22,NE,48,3.6,3.6,72,0.00,OVC,,0.00,WeatherDisplay:10.37,2013-01-16 05:08:00,
2013-01-16 00:10:00,32.6,24.3,30.22,ENE,71,2.3,2.3,71,0.00,OVC,,0.00,WeatherDisplay:10.37,2013-01-16 05:10:00,
2013-01-16 00:15:00,32.7,24.7,30.22,ENE,71,0.0,0.0,72,0.00,OVC,,0.00,WeatherDisplay:10.37,2013-01-16 05:15:00,
2013-01-16 00:20:00,32.8,24.5,30.22,NNE,16,0.0,0.0,71,0.00,OVC,,0.00,WeatherDisplay:10.37,2013-01-16 05:20:00,
2013-01-16 00:25:00,32.5,24.2,30.22,NNE,16,0.0,0.0,71,0.00,OVC,,0.00,WeatherDisplay:10.37,2013-01-16 05:25:00,
2013-01-16 00:30:00,32.8,24.5,30.22,NNE,16,0.0,0.0,71,0.00,OVC,,0.00,WeatherDisplay:10.37,2013-01-16 05:30:00,
2013-01-16 00:35:00,32.7,23.7,30.22,North,356,1.1,0.0,69,0.00,OVC,,0.00,WeatherDisplay:10.37,2013-01-16 05:35:00,
2013-01-16 00:41:00,32.6,24.3,30.22,North,356,0.0,0.0,71,0.00,OVC,,0.00,WeatherDisplay:10.37,2013-01-16 05:41:00,
2013-01-16 00:48:00,32.7,24.7,30.21,North,356,0.0,0.0,72,0.00,OVC,,0.00,WeatherDisplay:10.37,2013-01-16 05:48:00,
2013-01-16 00:53:00,32.8,24.8,30.22,North,356,0.0,0.0,72,0.00,OVC,,0.00,WeatherDisplay:10.37,2013-01-16 05:53:00,
2013-01-16 00:58:00,32.5,24.8,30.22,North,356,0.0,0.0,73,0.00,OVC,,0.00,WeatherDisplay:10.37,2013-01-16 05:58:00,
2013-01-16 01:03:00,32.5,25.2,30.22,North,356,0.0,0.0,74,0.00,-SN,,0.00,WeatherDisplay:10.37,2013-01-16 06:03:00,
2013-01-16 01:08:00,32.5,25.5,30.22,North,356,0.0,0.0,75,0.00,-SN,,0.00,WeatherDisplay:10.37,2013-01-16 06:08:00,
2013-01-16 01:13:00,31.9,24.9,30.21,North,356,0.0,0.0,75,0.00,-SN,,0.00,WeatherDisplay:10.37,2013-01-16 06:13:00,
2013-01-16 01:18:00,31.9,25.2,30.21,North,356,0.0,0.0,76,0.00,-SN,,0.00,WeatherDisplay:10.37,2013-01-16 06:18:00,
2013-01-16 01:23:00,31.8,25.4,30.19,North,356,0.0,0.0,77,0.00,-SN,,0.00,WeatherDisplay:10.37,2013-01-16 06:23:00,
2013-01-16 01:28:00,31.7,25.7,30.19,North,356,0.0,0.0,78,0.00,-SN,,0.00,WeatherDisplay:10.37,2013-01-16 06:28:00,
2013-01-16 01:33:00,31.5,25.8,30.19,North,356,0.0,0.0,79,0.00,-SN,,0.00,WeatherDisplay:10.37,2013-01-16 06:33:00,
2013-01-16 01:38:00,31.3,25.6,30.20,North,356,0.0,0.0,79,0.00,-SN,,0.00,WeatherDisplay:10.37,2013-01-16 06:38:00,
2013-01-16 01:43:00,31.1,26.0,30.19,North,356,0.0,0.0,81,0.00,-SN,,0.00,WeatherDisplay:10.37,2013-01-16 06:43:00,
2013-01-16 01:48:00,31.0,26.2,30.20,North,356,0.0,0.0,82,0.00,-SN,,0.00,WeatherDisplay:10.37,2013-01-16 06:48:00,
2013-01-16 01:53:00,30.9,26.7,30.19,North,356,0.0,0.0,84,0.00,-SN,,0.00,WeatherDisplay:10.37,2013-01-16 06:53:00,
2013-01-16 01:58:00,30.6,26.9,30.19,North,356,0.0,0.0,86,0.00,-SN,,0.00,WeatherDisplay:10.37,2013-01-16 06:58:00,
2013-01-16 02:04:00,30.3,26.7,30.19,North,356,0.0,0.0,86,0.00,-SN,,0.00,WeatherDisplay:10.37,2013-01-16 07:04:00,
2013-01-16 02:09:00,30.2,26.8,30.19,North,356,0.0,0.0,87,0.00,-SN,,0.00,WeatherDisplay:10.37,2013-01-16 07:09:00,
2013-01-16 02:14:00,29.9,27.1,30.19,North,356,0.0,0.0,89,0.00,-SN,,0.00,WeatherDisplay:10.37,2013-01-16 07:14:00,
2013-01-16 02:19:00,29.8,27.3,30.19,North,356,0.0,0.0,90,0.00,-SN,,0.00,WeatherDisplay:10.37,2013-01-16 07:19:00,
2013-01-16 02:24:00,29.8,27.3,30.19,North,356,0.0,0.0,90,0.00,-SN,,0.00,WeatherDisplay:10.37,2013-01-16 07:24:00,
2013-01-16 02:29:00,29.6,27.3,30.19,North,356,0.0,0.0,91,0.00,-SN,,0.00,WeatherDisplay:10.37,2013-01-16 07:29:00,
2013-01-16 02:34:00,29.6,27.6,30.18,North,356,0.0,0.0,92,0.01,-SN,,0.01,WeatherDisplay:10.37,2013-01-16 07:34:00,
2013-01-16 02:39:00,29.6,27.9,30.18,North,356,0.0,0.0,93,0.01,-SN,,0.01,WeatherDisplay:10.37,2013-01-16 07:39:00,
2013-01-16 02:44:00,29.6,27.9,30.19,North,356,0.0,0.0,93,0.01,-SN,,0.01,WeatherDisplay:10.37,2013-01-16 07:44:00,
2013-01-16 02:49:00,29.4,27.7,30.19,North,356,0.0,0.0,93,0.02,-SN,,0.02,WeatherDisplay:10.37,2013-01-16 07:49:00,
2013-01-16 02:54:00,29.4,27.7,30.19,NNW,347,2.3,2.3,93,0.03,-SN,,0.03,WeatherDisplay:10.37,2013-01-16 07:54:00,
2013-01-16 02:59:00,29.8,28.1,30.19,NW,322,2.3,2.3,93,0.04,-SN,,0.04,WeatherDisplay:10.37,2013-01-16 07:59:00,
2013-01-16 03:04:00,29.4,27.9,30.19,NNW,337,1.1,1.1,94,0.04,-SN,,0.04,WeatherDisplay:10.37,2013-01-16 08:04:00,
2013-01-16 03:09:00,29.4,27.9,30.19,NNW,344,0.0,0.0,94,0.05,-SN,,0.05,WeatherDisplay:10.37,2013-01-16 08:09:00,
2013-01-16 03:14:00,29.5,28.0,30.18,NNW,344,0.0,0.0,94,0.05,-SN,,0.05,WeatherDisplay:10.37,2013-01-16 08:14:00,
2013-01-16 03:19:00,29.6,28.4,30.17,NNW,342,1.1,1.1,95,0.05,-SN,,0.05,WeatherDisplay:10.37,2013-01-16 08:19:00,
2013-01-16 03:24:00,29.5,28.5,30.16,NNW,344,0.0,0.0,96,0.06,-SN,,0.06,WeatherDisplay:10.37,2013-01-16 08:24:00,
2013-01-16 03:29:00,29.5,28.5,30.16,NNW,344,0.0,0.0,96,0.07,-SN,,0.07,WeatherDisplay:10.37,2013-01-16 08:29:00,
2013-01-16 03:34:00,29.5,28.5,30.16,NNW,344,0.0,0.0,96,0.06,-SN,,0.07,WeatherDisplay:10.37,2013-01-16 08:34:00,
2013-01-16 03:39:00,29.6,28.6,30.16,NNW,344,0.0,0.0,96,0.07,-SN,,0.08,WeatherDisplay:10.37,2013-01-16 08:39:00,
2013-01-16 03:44:00,29.4,28.4,30.15,NNW,347,0.0,0.0,96,0.08,-SN,,0.09,WeatherDisplay:10.37,2013-01-16 08:44:00,
2013-01-16 03:49:00,29.5,28.5,30.15,NNW,347,0.0,0.0,96,0.07,-SN,,0.09,WeatherDisplay:10.37,2013-01-16 08:49:00,
2013-01-16 03:54:00,29.5,28.5,30.15,NNW,347,0.0,0.0,96,0.07,-SN,,0.10,WeatherDisplay:10.37,2013-01-16 08:54:00,
2013-01-16 03:59:00,29.4,28.4,30.15,NNW,347,0.0,0.0,96,0.06,-SN,,0.10,WeatherDisplay:10.37,2013-01-16 08:59:00,
2013-01-16 04:04:00,29.6,28.9,30.13,NNW,347,0.0,0.0,97,0.06,-SN,,0.10,WeatherDisplay:10.37,2013-01-16 09:04:00,
2013-01-16 04:09:00,29.5,28.8,30.13,NNW,347,0.0,0.0,97,0.05,-SN,,0.10,WeatherDisplay:10.37,2013-01-16 09:09:00,
2013-01-16 04:14:00,29.4,28.7,30.13,NNW,347,0.0,0.0,97,0.05,-SN,,0.11,WeatherDisplay:10.37,2013-01-16 09:14:00,
2013-01-16 04:19:00,29.2,28.5,30.12,NNW,347,0.0,0.0,97,0.06,-SN,,0.11,WeatherDisplay:10.37,2013-01-16 09:19:00,
2013-01-16 04:24:00,29.3,28.6,30.12,NNW,347,0.0,0.0,97,0.06,-SN,,0.12,WeatherDisplay:10.37,2013-01-16 09:24:00,
2013-01-16 04:29:00,29.3,28.8,30.11,NNW,347,0.0,0.0,98,0.06,-SN,,0.12,WeatherDisplay:10.37,2013-01-16 09:29:00,
2013-01-16 04:34:00,29.2,28.7,30.12,NNW,347,0.0,0.0,98,0.06,-SN,,0.13,WeatherDisplay:10.37,2013-01-16 09:34:00,
2013-01-16 04:39:00,29.4,28.9,30.12,NNW,347,0.0,0.0,98,0.05,-SN,,0.13,WeatherDisplay:10.37,2013-01-16 09:39:00,
2013-01-16 04:44:00,29.4,28.9,30.12,NNW,347,0.0,0.0,98,0.05,-SN,,0.13,WeatherDisplay:10.37,2013-01-16 09:44:00,
2013-01-16 04:49:00,29.2,28.7,30.12,NNW,347,0.0,0.0,98,0.04,-SN,,0.13,WeatherDisplay:10.37,2013-01-16 09:49:00,
2013-01-16 04:54:00,29.3,28.8,30.11,NNW,347,0.0,0.0,98,0.03,-SN,,0.13,WeatherDisplay:10.37,2013-01-16 09:54:00,
2013-01-16 04:59:00,29.5,29.0,30.10,NNW,347,0.0,0.0,98,0.03,-SN,,0.13,WeatherDisplay:10.37,2013-01-16 09:59:00,
2013-01-16 05:04:00,29.3,28.8,30.10,NNW,347,0.0,0.0,98,0.03,-SN,,0.13,WeatherDisplay:10.37,2013-01-16 10:04:00,
2013-01-16 05:09:00,29.2,28.7,30.09,NNW,347,0.0,0.0,98,0.03,-SN,,0.13,WeatherDisplay:10.37,2013-01-16 10:09:00,
2013-01-16 05:14:00,29.1,28.6,30.10,NNW,347,0.0,0.0,98,0.06,-SN,,0.16,WeatherDisplay:10.37,2013-01-16 10:14:00,
2013-01-16 05:20:00,29.3,28.8,30.10,East,85,0.0,0.0,98,0.06,RA,,0.18,WeatherDisplay:10.37,2013-01-16 10:20:00,
2013-01-16 05:25:00,29.4,28.9,30.10,East,85,0.0,0.0,98,0.07,RA,,0.19,WeatherDisplay:10.37,2013-01-16 10:25:00,
2013-01-16 05:30:00,29.4,28.9,30.10,East,85,0.0,0.0,98,0.08,RA,,0.20,WeatherDisplay:10.37,2013-01-16 10:30:00,
2013-01-16 05:35:00,29.5,29.0,30.10,East,85,0.0,0.0,98,0.08,RA,,0.22,WeatherDisplay:10.37,2013-01-16 10:35:00,
2013-01-16 05:40:00,29.4,28.9,30.10,East,85,0.0,0.0,98,0.09,RA,,0.22,WeatherDisplay:10.37,2013-01-16 10:40:00,
2013-01-16 05:45:00,29.4,28.9,30.09,East,85,0.0,0.0,98,0.11,RA,,0.24,WeatherDisplay:10.37,2013-01-16 10:45:00,
2013-01-16 05:50:00,29.4,28.9,30.09,East,85,0.0,0.0,98,0.12,RA,,0.25,WeatherDisplay:10.37,2013-01-16 10:50:00,
2013-01-16 05:55:00,29.4,28.9,30.09,East,85,0.0,0.0,98,0.12,RA,,0.26,WeatherDisplay:10.37,2013-01-16 10:55:00,
2013-01-16 06:00:00,29.4,28.9,30.08,East,85,0.0,0.0,98,0.13,RA,,0.26,WeatherDisplay:10.37,2013-01-16 11:00:00,
2013-01-16 06:05:00,29.5,29.3,30.08,East,85,0.0,0.0,99,0.15,-SN,,0.28,WeatherDisplay:10.37,2013-01-16 11:05:00,
2013-01-16 06:10:00,29.3,29.1,30.09,East,85,0.0,0.0,99,0.16,-SN,,0.29,WeatherDisplay:10.37,2013-01-16 11:10:00,
2013-01-16 06:15:00,29.5,29.3,30.08,East,85,0.0,0.0,99,0.13,-SN,,0.30,WeatherDisplay:10.37,2013-01-16 11:15:00,
2013-01-16 06:20:00,29.6,29.4,30.09,East,85,0.0,0.0,99,0.13,-SN,,0.30,WeatherDisplay:10.37,2013-01-16 11:20:00,
2013-01-16 06:25:00,29.4,29.2,30.08,East,85,0.0,0.0,99,0.13,-SN,,0.31,WeatherDisplay:10.37,2013-01-16 11:25:00,
2013-01-16 06:30:00,29.6,29.4,30.08,East,85,0.0,0.0,99,0.12,-SN,,0.32,WeatherDisplay:10.37,2013-01-16 11:30:00,
2013-01-16 06:35:00,29.7,29.5,30.08,East,85,0.0,0.0,99,0.12,-SN,,0.33,WeatherDisplay:10.37,2013-01-16 11:35:00,
2013-01-16 06:40:00,29.5,29.3,30.09,East,85,0.0,0.0,99,0.11,-SN,,0.33,WeatherDisplay:10.37,2013-01-16 11:40:00,
2013-01-16 06:45:00,29.4,29.2,30.08,East,85,0.0,0.0,99,0.11,-SN,,0.34,WeatherDisplay:10.37,2013-01-16 11:45:00,
2013-01-16 06:51:00,29.6,29.4,30.08,East,85,0.0,0.0,99,0.11,-SN,,0.35,WeatherDisplay:10.37,2013-01-16 11:51:00,
2013-01-16 06:56:00,29.5,29.3,30.07,East,85,0.0,0.0,99,0.10,-SN,,0.35,WeatherDisplay:10.37,2013-01-16 11:56:00,
2013-01-16 07:01:00,29.5,29.3,30.07,East,85,0.0,0.0,99,0.10,-SN,,0.36,WeatherDisplay:10.37,2013-01-16 12:01:00,
2013-01-16 07:06:00,29.6,29.4,30.06,East,85,0.0,0.0,99,0.09,-SN,,0.37,WeatherDisplay:10.37,2013-01-16 12:06:00,
2013-01-16 07:11:00,29.8,29.6,30.06,East,85,0.0,0.0,99,0.08,-SN,,0.37,WeatherDisplay:10.37,2013-01-16 12:11:00,
2013-01-16 07:16:00,29.7,29.5,30.06,East,85,0.0,0.0,99,0.08,-SN,,0.38,WeatherDisplay:10.37,2013-01-16 12:16:00,
2013-01-16 07:21:00,29.6,29.4,30.06,East,85,0.0,0.0,99,0.08,-SN,,0.38,WeatherDisplay:10.37,2013-01-16 12:21:00,
2013-01-16 07:26:00,29.8,29.6,30.05,East,85,0.0,0.0,99,0.07,-SN,,0.38,WeatherDisplay:10.37,2013-01-16 12:26:00,
2013-01-16 07:31:00,29.7,29.5,30.05,East,85,0.0,0.0,99,0.06,-SN,,0.39,WeatherDisplay:10.37,2013-01-16 12:31:00,
2013-01-16 07:36:00,29.8,29.6,30.05,East,85,0.0,0.0,99,0.06,-SN,,0.39,WeatherDisplay:10.37,2013-01-16 12:36:00,
2013-01-16 07:41:00,29.8,29.6,30.05,East,85,0.0,0.0,99,0.06,-SN,,0.39,WeatherDisplay:10.37,2013-01-16 12:41:00,
2013-01-16 07:46:00,29.7,29.5,30.04,East,85,0.0,0.0,99,0.06,-SN,,0.40,WeatherDisplay:10.37,2013-01-16 12:46:00,
2013-01-16 07:51:00,29.8,29.6,30.05,East,85,0.0,0.0,99,0.05,-SN,,0.40,WeatherDisplay:10.37,2013-01-16 12:51:00,
2013-01-16 07:56:00,29.9,29.7,30.05,East,85,0.0,0.0,99,0.05,-SN,,0.40,WeatherDisplay:10.37,2013-01-16 12:56:00,
2013-01-16 08:01:00,29.7,29.5,30.06,East,85,0.0,0.0,99,0.04,-SN,,0.40,WeatherDisplay:10.37,2013-01-16 13:01:00,
2013-01-16 08:06:00,29.9,29.7,30.05,East,85,0.0,0.0,99,0.04,-SN,,0.40,WeatherDisplay:10.37,2013-01-16 13:06:00,
2013-01-16 08:11:00,29.9,29.7,30.05,East,85,0.0,0.0,99,0.04,-SN,,0.41,WeatherDisplay:10.37,2013-01-16 13:11:00,
2013-01-16 08:16:00,30.0,29.8,30.04,East,85,0.0,0.0,99,0.05,-SN,,0.42,WeatherDisplay:10.37,2013-01-16 13:16:00,
2013-01-16 08:21:00,29.8,29.6,30.05,East,85,0.0,0.0,99,0.05,RA,,0.43,WeatherDisplay:10.37,2013-01-16 13:21:00,
2013-01-16 08:26:00,29.9,29.7,30.04,East,85,0.0,0.0,99,0.05,RA,,0.44,WeatherDisplay:10.37,2013-01-16 13:26:00,
2013-01-16 08:31:00,29.8,29.6,30.03,East,85,0.0,0.0,99,0.06,RA,,0.44,WeatherDisplay:10.37,2013-01-16 13:31:00,
2013-01-16 08:36:00,29.8,29.6,30.03,East,85,0.0,0.0,99,0.06,RA,,0.45,WeatherDisplay:10.37,2013-01-16 13:36:00,
2013-01-16 08:41:00,29.8,29.6,30.01,East,85,0.0,0.0,99,0.06,RA,,0.45,WeatherDisplay:10.37,2013-01-16 13:41:00,
2013-01-16 08:47:00,30.0,29.8,30.01,East,85,0.0,0.0,99,0.05,OVC,,0.46,WeatherDisplay:10.37,2013-01-16 13:47:00,
2013-01-16 08:53:00,30.0,29.8,30.01,East,85,0.0,0.0,99,0.06,RA,,0.46,WeatherDisplay:10.37,2013-01-16 13:53:00,
2013-01-16 08:58:00,30.3,30.1,30.01,East,85,0.0,0.0,99,0.06,RA,,0.46,WeatherDisplay:10.37,2013-01-16 13:58:00,
2013-01-16 09:03:00,30.2,30.0,30.01,East,85,0.0,0.0,99,0.06,OVC,,0.46,WeatherDisplay:10.37,2013-01-16 14:03:00,
2013-01-16 09:08:00,30.2,30.0,29.99,East,85,0.0,0.0,99,0.06,OVC,,0.46,WeatherDisplay:10.37,2013-01-16 14:08:00,
2013-01-16 09:13:00,30.2,30.0,29.98,East,85,0.0,0.0,99,0.05,OVC,,0.46,WeatherDisplay:10.37,2013-01-16 14:13:00,
2013-01-16 09:18:00,30.4,30.2,29.98,East,85,0.0,0.0,99,0.04,OVC,,0.46,WeatherDisplay:10.37,2013-01-16 14:18:00,
2013-01-16 09:23:00,30.5,30.3,29.97,East,85,0.0,0.0,99,0.03,OVC,,0.46,WeatherDisplay:10.37,2013-01-16 14:23:00,
2013-01-16 09:28:00,30.6,30.4,29.96,East,85,0.0,0.0,99,0.02,OVC,,0.46,WeatherDisplay:10.37,2013-01-16 14:28:00,
2013-01-16 09:33:00,30.8,30.6,29.96,East,85,0.0,0.0,99,0.02,OVC,,0.46,WeatherDisplay:10.37,2013-01-16 14:33:00,
2013-01-16 09:38:00,30.9,30.7,29.95,East,85,0.0,0.0,99,0.01,OVC,,0.46,WeatherDisplay:10.37,2013-01-16 14:38:00,
2013-01-16 09:43:00,30.7,30.5,29.95,East,85,0.0,0.0,99,0.01,OVC,,0.46,WeatherDisplay:10.37,2013-01-16 14:43:00,
2013-01-16 09:48:00,30.9,30.7,29.95,East,85,0.0,0.0,99,0.01,OVC,,0.46,WeatherDisplay:10.37,2013-01-16 14:48:00,
2013-01-16 09:53:00,30.9,30.7,29.96,East,85,0.0,0.0,99,0.00,OVC,,0.46,WeatherDisplay:10.37,2013-01-16 14:53:00,
2013-01-16 09:59:00,31.1,30.9,29.95,East,85,0.0,0.0,99,0.00,OVC,,0.46,WeatherDisplay:10.37,2013-01-16 14:59:00,
2013-01-16 10:04:00,31.1,30.9,29.95,East,85,0.0,0.0,99,0.00,OVC,,0.46,WeatherDisplay:10.37,2013-01-16 15:04:00,
2013-01-16 10:09:00,31.1,30.9,29.95,East,85,0.0,0.0,99,0.00,OVC,,0.46,WeatherDisplay:10.37,2013-01-16 15:09:00,
2013-01-16 10:14:00,31.0,30.8,29.93,East,85,0.0,0.0,99,0.00,OVC,,0.46,WeatherDisplay:10.37,2013-01-16 15:14:00,
2013-01-16 10:19:00,31.1,30.9,29.93,East,85,0.0,0.0,99,0.00,OVC,,0.46,WeatherDisplay:10.37,2013-01-16 15:19:00,
2013-01-16 10:24:00,31.1,30.9,29.93,East,85,0.0,0.0,99,0.00,OVC,,0.46,WeatherDisplay:10.37,2013-01-16 15:24:00,
2013-01-16 10:29:00,31.2,31.0,29.94,East,85,0.0,0.0,99,0.00,OVC,,0.46,WeatherDisplay:10.37,2013-01-16 15:29:00,
2013-01-16 10:34:00,31.2,31.0,29.95,East,85,0.0,0.0,99,0.00,OVC,,0.46,WeatherDisplay:10.37,2013-01-16 15:34:00,
2013-01-16 10:39:00,31.2,31.0,29.97,East,85,0.0,0.0,99,0.00,OVC,,0.46,WeatherDisplay:10.37,2013-01-16 15:39:00,
2013-01-16 10:44:00,31.1,30.9,29.97,East,85,0.0,0.0,99,0.00,OVC,,0.46,WeatherDisplay:10.37,2013-01-16 15:44:00,
2013-01-16 10:49:00,31.2,31.0,29.96,East,85,0.0,0.0,99,0.00,OVC,,0.46,WeatherDisplay:10.37,2013-01-16 15:49:00,
2013-01-16 10:54:00,31.3,31.1,29.96,East,85,0.0,0.0,99,0.01,RA,,0.47,WeatherDisplay:10.37,2013-01-16 15:54:00,
2013-01-16 10:59:00,31.5,31.3,29.95,East,85,0.0,0.0,99,0.01,RA,,0.47,WeatherDisplay:10.37,2013-01-16 15:59:00,
2013-01-16 11:04:00,31.5,31.3,29.95,East,85,0.0,0.0,99,0.01,OVC,,0.47,WeatherDisplay:10.37,2013-01-16 16:04:00,
2013-01-16 11:09:00,31.5,31.3,29.95,East,85,0.0,0.0,99,0.02,RA,,0.48,WeatherDisplay:10.37,2013-01-16 16:09:00,
2013-01-16 11:14:00,31.7,31.5,29.94,East,85,0.0,0.0,99,0.02,RA,,0.48,WeatherDisplay:10.37,2013-01-16 16:14:00,
2013-01-16 11:19:00,31.9,31.7,29.94,East,85,0.0,0.0,99,0.02,OVC,,0.48,WeatherDisplay:10.37,2013-01-16 16:19:00,
2013-01-16 11:24:00,31.9,31.7,29.94,East,85,0.0,0.0,99,0.02,OVC,,0.48,WeatherDisplay:10.37,2013-01-16 16:24:00,
2013-01-16 11:29:00,32.0,31.8,29.94,East,85,0.0,0.0,99,0.02,OVC,,0.48,WeatherDisplay:10.37,2013-01-16 16:29:00,
2013-01-16 11:34:00,32.0,31.8,29.93,East,85,0.0,0.0,99,0.02,OVC,,0.48,WeatherDisplay:10.37,2013-01-16 16:34:00,
2013-01-16 11:39:00,32.0,31.8,29.93,East,85,0.0,0.0,99,0.02,OVC,,0.48,WeatherDisplay:10.37,2013-01-16 16:39:00,
2013-01-16 11:44:00,32.0,31.8,29.92,East,85,0.0,0.0,99,0.03,RA,,0.49,WeatherDisplay:10.37,2013-01-16 16:44:00,
2013-01-16 11:49:00,32.0,31.8,29.93,East,85,0.0,0.0,99,0.03,RA,,0.49,WeatherDisplay:10.37,2013-01-16 16:49:00,
2013-01-16 11:54:00,31.9,31.7,29.93,East,85,0.0,0.0,99,0.03,OVC,,0.49,WeatherDisplay:10.37,2013-01-16 16:54:00,
2013-01-16 11:59:00,32.0,31.8,29.93,East,85,0.0,0.0,99,0.02,OVC,,0.49,WeatherDisplay:10.37,2013-01-16 16:59:00,
2013-01-16 12:04:00,32.1,31.9,29.93,East,85,0.0,0.0,99,0.02,OVC,,0.49,WeatherDisplay:10.37,2013-01-16 17:04:00,
2013-01-16 12:09:00,32.2,32.0,29.92,East,85,0.0,0.0,99,0.01,OVC,,0.49,WeatherDisplay:10.37,2013-01-16 17:09:00,
2013-01-16 12:14:00,32.0,32.0,29.91,East,85,0.0,0.0,100,0.01,OVC,,0.49,WeatherDisplay:10.37,2013-01-16 17:14:00,
2013-01-16 12:19:00,32.2,32.2,29.91,East,85,0.0,0.0,100,0.01,OVC,,0.49,WeatherDisplay:10.37,2013-01-16 17:19:00,
2013-01-16 12:24:00,32.0,32.0,29.89,East,85,0.0,0.0,100,0.01,OVC,,0.49,WeatherDisplay:10.37,2013-01-16 17:24:00,
2013-01-16 12:29:00,32.0,32.0,29.88,East,85,0.0,0.0,100,0.01,OVC,,0.49,WeatherDisplay:10.37,2013-01-16 17:29:00,
2013-01-16 12:34:00,31.9,31.9,29.86,East,85,0.0,0.0,100,0.01,OVC,,0.49,WeatherDisplay:10.37,2013-01-16 17:34:00,
2013-01-16 12:39:00,32.0,32.0,29.89,East,85,0.0,0.0,100,0.01,OVC,,0.49,WeatherDisplay:10.37,2013-01-16 17:39:00,
2013-01-16 12:44:00,32.1,32.1,29.90,East,85,0.0,0.0,100,0.00,OVC,,0.49,WeatherDisplay:10.37,2013-01-16 17:44:00,
2013-01-16 12:49:00,32.1,32.1,29.89,East,85,0.0,0.0,100,0.00,OVC,,0.49,WeatherDisplay:10.37,2013-01-16 17:49:00,
2013-01-16 12:54:00,32.4,32.4,29.88,East,85,0.0,0.0,100,0.00,OVC,,0.49,WeatherDisplay:10.37,2013-01-16 17:54:00,
2013-01-16 12:59:00,32.1,32.1,29.86,East,85,0.0,0.0,100,0.00,OVC,,0.49,WeatherDisplay:10.37,2013-01-16 17:59:00,
2013-01-16 13:04:00,32.1,32.1,29.84,East,85,0.0,0.0,100,0.00,OVC,,0.49,WeatherDisplay:10.37,2013-01-16 18:04:00,
2013-01-16 13:09:00,32.1,32.1,29.84,East,85,0.0,0.0,100,0.00,OVC,,0.49,WeatherDisplay:10.37,2013-01-16 18:09:00,
2013-01-16 13:14:00,32.3,32.3,29.82,East,85,0.0,0.0,100,0.00,OVC,,0.49,WeatherDisplay:10.37,2013-01-16 18:14:00,
2013-01-16 13:19:00,32.0,32.0,29.81,East,85,0.0,0.0,100,0.00,OVC,,0.49,WeatherDisplay:10.37,2013-01-16 18:19:00,
2013-01-16 13:24:00,32.1,32.1,29.81,East,85,0.0,0.0,100,0.00,OVC,,0.49,WeatherDisplay:10.37,2013-01-16 18:24:00,
2013-01-16 13:29:00,32.1,32.1,29.81,East,85,0.0,0.0,100,0.00,OVC,,0.49,WeatherDisplay:10.37,2013-01-16 18:29:00,
2013-01-16 13:34:00,32.3,32.3,29.83,East,85,0.0,0.0,100,0.00,OVC,,0.49,WeatherDisplay:10.37,2013-01-16 18:34:00,
2013-01-16 13:39:00,32.0,32.0,29.84,East,85,0.0,0.0,100,0.00,OVC,,0.49,WeatherDisplay:10.37,2013-01-16 18:39:00,
2013-01-16 13:44:00,32.1,32.1,29.84,East,85,0.0,0.0,100,0.00,OVC,,0.49,WeatherDisplay:10.37,2013-01-16 18:44:00,
2013-01-16 13:49:00,32.0,32.0,29.84,East,85,0.0,0.0,100,0.00,OVC,,0.49,WeatherDisplay:10.37,2013-01-16 18:49:00,
2013-01-16 13:54:00,32.0,32.0,29.86,East,85,0.0,0.0,100,0.00,OVC,,0.49,WeatherDisplay:10.37,2013-01-16 18:54:00,
2013-01-16 13:59:00,31.9,31.9,29.85,East,85,0.0,0.0,100,0.00,OVC,,0.49,WeatherDisplay:10.37,2013-01-16 18:59:00,
2013-01-16 14:04:00,32.0,32.0,29.84,East,85,0.0,0.0,100,0.00,OVC,,0.49,WeatherDisplay:10.37,2013-01-16 19:04:00,
2013-01-16 14:09:00,32.1,32.1,29.83,East,85,0.0,0.0,100,0.00,OVC,,0.49,WeatherDisplay:10.37,2013-01-16 19:09:00,
2013-01-16 14:14:00,32.1,32.1,29.84,East,85,0.0,0.0,100,0.00,OVC,,0.49,WeatherDisplay:10.37,2013-01-16 19:14:00,
2013-01-16 14:19:00,32.0,32.0,29.85,East,85,0.0,0.0,100,0.00,OVC,,0.49,WeatherDisplay:10.37,2013-01-16 19:19:00,
2013-01-16 14:24:00,32.2,32.2,29.85,East,85,0.0,0.0,100,0.00,OVC,,0.49,WeatherDisplay:10.37,2013-01-16 19:24:00,
2013-01-16 14:29:00,32.3,32.3,29.86,East,85,0.0,0.0,100,0.00,OVC,,0.49,WeatherDisplay:10.37,2013-01-16 19:29:00,
2013-01-16 14:34:00,32.3,32.3,29.87,East,85,0.0,0.0,100,0.00,OVC,,0.49,WeatherDisplay:10.37,2013-01-16 19:34:00,
2013-01-16 14:40:00,32.6,32.6,29.87,East,85,0.0,0.0,100,0.00,OVC,,0.49,WeatherDisplay:10.37,2013-01-16 19:40:00,
2013-01-16 14:45:00,32.4,32.4,29.86,East,85,0.0,0.0,100,0.00,OVC,,0.49,WeatherDisplay:10.37,2013-01-16 19:45:00,
2013-01-16 14:50:00,32.1,32.1,29.85,East,85,0.0,0.0,100,0.00,OVC,,0.49,WeatherDisplay:10.37,2013-01-16 19:50:00,
2013-01-16 14:55:00,32.1,32.1,29.84,East,85,0.0,0.0,100,0.00,OVC,,0.49,WeatherDisplay:10.37,2013-01-16 19:55:00,
2013-01-16 15:00:00,32.3,32.3,29.85,East,85,0.0,0.0,100,0.00,OVC,,0.49,WeatherDisplay:10.37,2013-01-16 20:00:00,
2013-01-16 15:06:00,32.4,32.4,29.86,East,85,0.0,0.0,100,0.00,OVC,,0.49,WeatherDisplay:10.37,2013-01-16 20:06:00,
2013-01-16 15:12:00,32.5,32.5,29.86,East,85,0.0,0.0,100,0.00,OVC,,0.49,WeatherDisplay:10.37,2013-01-16 20:12:00,
2013-01-16 15:17:00,32.3,32.3,29.85,East,85,0.0,0.0,100,0.00,OVC,,0.49,WeatherDisplay:10.37,2013-01-16 20:17:00,
2013-01-16 15:22:00,32.1,32.1,29.84,East,85,0.0,0.0,100,0.00,OVC,,0.49,WeatherDisplay:10.37,2013-01-16 20:22:00,
2013-01-16 15:27:00,32.2,32.2,29.85,East,85,0.0,0.0,100,0.00,OVC,,0.49,WeatherDisplay:10.37,2013-01-16 20:27:00,
2013-01-16 15:33:00,32.1,32.1,29.86,East,85,0.0,0.0,100,0.00,OVC,,0.49,WeatherDisplay:10.37,2013-01-16 20:33:00,
2013-01-16 15:41:00,32.1,32.1,29.86,East,85,0.0,0.0,100,0.00,OVC,,0.49,WeatherDisplay:10.37,2013-01-16 20:41:00,
2013-01-16 15:47:00,32.3,32.3,29.85,East,85,0.0,0.0,100,0.00,OVC,,0.49,WeatherDisplay:10.37,2013-01-16 20:47:00,
2013-01-16 15:52:00,32.3,32.3,29.85,East,85,0.0,0.0,100,0.00,OVC,,0.49,WeatherDisplay:10.37,2013-01-16 20:52:00,
2013-01-16 16:01:00,32.1,32.1,29.85,East,85,0.0,0.0,100,0.00,OVC,,0.49,WeatherDisplay:10.37,2013-01-16 21:01:00,
2013-01-16 16:06:00,32.3,32.3,29.85,East,85,0.0,0.0,100,0.00,OVC,,0.49,WeatherDisplay:10.37,2013-01-16 21:06:00,
2013-01-16 16:11:00,32.1,32.1,29.85,East,85,0.0,0.0,100,0.00,OVC,,0.49,WeatherDisplay:10.37,2013-01-16 21:11:00,
2013-01-16 16:16:00,32.2,32.2,29.85,East,85,0.0,0.0,100,0.00,OVC,,0.49,WeatherDisplay:10.37,2013-01-16 21:16:00,
2013-01-16 20:53:00,32.0,32.0,29.86,North,0,0.0,0.0,100,0.00,OVC,,0.49,WeatherDisplay:10.37,2013-01-17 01:53:00,
2013-01-16 20:58:00,32.0,32.0,29.86,North,0,0.0,0.0,100,0.00,RA,,0.49,WeatherDisplay:10.37,2013-01-17 01:58:00,
2013-01-16 21:03:00,32.0,32.0,29.86,North,0,0.0,0.0,100,0.00,RA,,0.49,WeatherDisplay:10.37,2013-01-17 02:03:00,
2013-01-16 21:08:00,32.1,32.1,29.86,North,0,0.0,0.0,100,0.00,OVC,,0.49,WeatherDisplay:10.37,2013-01-17 02:08:00,
2013-01-16 21:13:00,32.0,32.0,29.86,North,0,0.0,0.0,100,0.00,OVC,,0.49,WeatherDisplay:10.37,2013-01-17 02:13:00,
2013-01-16 21:18:00,32.0,32.0,29.87,North,0,0.0,0.0,100,0.00,OVC,,0.49,WeatherDisplay:10.37,2013-01-17 02:18:00,
2013-01-16 21:23:00,32.2,32.2,29.87,North,0,0.0,0.0,100,0.00,OVC,,0.49,WeatherDisplay:10.37,2013-01-17 02:23:00,
2013-01-16 21:28:00,32.0,32.0,29.87,North,0,0.0,0.0,100,0.00,OVC,,0.49,WeatherDisplay:10.37,2013-01-17 02:28:00,
2013-01-16 21:33:00,31.9,31.9,29.87,North,0,0.0,0.0,100,0.00,OVC,,0.49,WeatherDisplay:10.37,2013-01-17 02:33:00,
2013-01-16 21:38:00,31.8,31.8,29.87,North,0,0.0,0.0,100,0.00,OVC,,0.49,WeatherDisplay:10.37,2013-01-17 02:38:00,
2013-01-16 21:43:00,32.0,32.0,29.87,North,0,0.0,0.0,100,0.00,OVC,,0.49,WeatherDisplay:10.37,2013-01-17 02:43:00,
2013-01-16 21:48:00,31.7,31.7,29.87,North,0,0.0,0.0,100,0.00,OVC,,0.49,WeatherDisplay:10.37,2013-01-17 02:48:00,
2013-01-16 21:53:00,31.9,31.9,29.87,North,0,0.0,0.0,100,0.00,OVC,,0.49,WeatherDisplay:10.37,2013-01-17 02:53:00,
2013-01-16 21:58:00,31.7,31.7,29.87,North,0,0.0,0.0,100,0.00,OVC,,0.49,WeatherDisplay:10.37,2013-01-17 02:58:00,
2013-01-16 22:03:00,31.6,31.6,29.86,North,0,0.0,0.0,100,0.00,OVC,,0.49,WeatherDisplay:10.37,2013-01-17 03:03:00,
2013-01-16 22:08:00,31.5,31.5,29.87,North,0,0.0,0.0,100,0.00,OVC,,0.49,WeatherDisplay:10.37,2013-01-17 03:08:00,
2013-01-16 22:13:00,31.5,31.5,29.87,North,0,0.0,0.0,100,0.00,OVC,,0.49,WeatherDisplay:10.37,2013-01-17 03:13:00,
2013-01-16 22:18:00,31.6,31.6,29.86,North,0,0.0,0.0,100,0.00,OVC,,0.49,WeatherDisplay:10.37,2013-01-17 03:18:00,
2013-01-16 22:23:00,31.3,31.3,29.86,North,0,0.0,0.0,100,0.00,OVC,,0.49,WeatherDisplay:10.37,2013-01-17 03:23:00,
2013-01-16 22:28:00,31.1,31.1,29.85,North,0,0.0,0.0,100,0.00,OVC,,0.49,WeatherDisplay:10.37,2013-01-17 03:28:00,
2013-01-16 22:33:00,31.1,31.1,29.85,North,0,0.0,0.0,100,0.00,OVC,,0.49,WeatherDisplay:10.37,2013-01-17 03:33:00,
2013-01-16 22:38:00,31.2,31.2,29.85,North,0,0.0,0.0,100,0.00,OVC,,0.49,WeatherDisplay:10.37,2013-01-17 03:38:00,
2013-01-16 22:43:00,31.1,31.1,29.85,North,0,0.0,0.0,100,0.00,OVC,,0.49,WeatherDisplay:10.37,2013-01-17 03:43:00,
2013-01-16 22:48:00,31.3,31.3,29.85,North,0,0.0,0.0,100,0.00,OVC,,0.49,WeatherDisplay:10.37,2013-01-17 03:48:00,
2013-01-16 22:53:00,31.4,31.4,29.85,North,0,0.0,0.0,100,0.00,OVC,,0.49,WeatherDisplay:10.37,2013-01-17 03:53:00,
2013-01-16 22:58:00,31.5,31.5,29.86,North,0,0.0,0.0,100,0.00,OVC,,0.49,WeatherDisplay:10.37,2013-01-17 03:58:00,
2013-01-16 23:03:00,31.4,31.4,29.86,North,0,0.0,0.0,100,0.00,BKN,,0.49,WeatherDisplay:10.37,2013-01-17 04:03:00,
2013-01-16 23:08:00,31.7,31.7,29.86,North,0,0.0,0.0,100,0.00,BKN,,0.49,WeatherDisplay:10.37,2013-01-17 04:08:00,
2013-01-16 23:13:00,31.5,31.5,29.85,North,0,0.0,0.0,100,0.00,BKN,,0.49,WeatherDisplay:10.37,2013-01-17 04:13:00,
2013-01-16 23:18:00,31.5,31.5,29.85,North,0,0.0,0.0,100,0.00,BKN,,0.49,WeatherDisplay:10.37,2013-01-17 04:18:00,
2013-01-16 23:23:00,31.5,31.5,29.86,North,0,0.0,0.0,100,0.00,BKN,,0.49,WeatherDisplay:10.37,2013-01-17 04:23:00,
2013-01-16 23:28:00,31.9,31.9,29.86,North,0,0.0,0.0,100,0.00,BKN,,0.49,WeatherDisplay:10.37,2013-01-17 04:28:00,
2013-01-16 23:33:00,32.0,32.0,29.86,North,0,0.0,0.0,100,0.00,BKN,,0.49,WeatherDisplay:10.37,2013-01-17 04:33:00,
2013-01-16 23:38:00,32.1,32.1,29.85,North,0,0.0,0.0,100,0.00,BKN,,0.49,WeatherDisplay:10.37,2013-01-17 04:38:00,
2013-01-16 23:43:00,32.0,32.0,29.86,North,0,0.0,0.0,100,0.00,BKN,,0.49,WeatherDisplay:10.37,2013-01-17 04:43:00,
2013-01-16 23:48:00,32.0,32.0,29.86,North,0,0.0,0.0,100,0.00,BKN,,0.49,WeatherDisplay:10.37,2013-01-17 04:48:00,
2013-01-16 23:53:00,32.4,32.4,29.86,North,0,0.0,0.0,100,0.00,BKN,,0.49,WeatherDisplay:10.37,2013-01-17 04:53:00,
2013-01-16 23:58:00,32.0,32.0,29.87,North,0,0.0,0.0,100,0.00,BKN,,0.49,WeatherDisplay:10.37,2013-01-17 04:58:00,